Change the Weather History Date:

Thursday, November 28, 2013

  Actual Average Record
Temperature  
Mean Temperature 14 °F -  
Max Temperature 24 °F 31 °F 51 °F (1998)
Min Temperature 5 °F 16 °F 5 °F (2013)
Degree Days  
Heating Degree Days 50    
Moisture  
Dew Point 8 °F    
Average Humidity 68    
Maximum Humidity 80    
Minimum Humidity 50    
Precipitation  
Precipitation 0.00 in - - ()
Sea Level Pressure  
Sea Level Pressure 30.31 in    
Wind  
Wind Speed 11 mph (NNW)    
Max Wind Speed 25 mph    
Max Gust Speed 30 mph    
Visibility 10 miles    
Events      
Averages and records for this station are not official NWS values.
T = Trace of Precipitation, MM = Missing Value Source: NWS Daily Summary

Daily Weather History Graph

Daily Weather History Graph

Search for Another Location

Airport or City:

Trip Planner

Search our weather history database for the weather conditions in past years. The results will help you decide how hot, cold, wet, or windy it might be!

Date:

Astronomy

Nov. 28, 2013 Rise Set
Actual Time 7:40 AM CST 4:43 PM CST
Civil Twilight 7:07 AM CST 5:16 PM CST
Nautical Twilight 6:30 AM CST 5:53 PM CST
Astronomical Twilight 5:54 AM CST 6:28 PM CST
Moon 2:31 AM CST (11/28) 2:04 PM CST (11/28)
Length of Visible Light 10h 09m
Length of Day
9h 02m
Waning Crescent, 22% of the Moon is Illuminated
Nov 28
Waning Crescent
Dec 2
New
Dec 9
First Quarter
Dec 17
Full
Dec 25
Last Quarter

Hourly Weather History & Observations

Time (CST) Temp. Windchill Dew Point Humidity Pressure Visibility Wind Dir Wind Speed Gust Speed Precip Events Conditions
12:04 AM 15.8 °F 10.2 °F 8.6 °F 73% 30.05 in 10.0 mi NNW 3.5 mph - N/A   Overcast
12:24 AM 15.8 °F 8.6 °F 8.6 °F 73% 30.06 in 10.0 mi WNW 4.6 mph - N/A   Overcast
12:44 AM 15.8 °F 8.6 °F 8.6 °F 73% 30.06 in 10.0 mi NW 4.6 mph - N/A   Overcast
1:04 AM 17.6 °F 10.7 °F 10.4 °F 73% 30.07 in 10.0 mi NW 4.6 mph - N/A   Overcast
1:24 AM 17.6 °F 7.3 °F 10.4 °F 73% 30.08 in 10.0 mi NW 8.1 mph - N/A   Overcast
1:44 AM 19.4 °F 7.9 °F 10.4 °F 68% 30.08 in 10.0 mi NW 10.4 mph - N/A   Overcast
2:04 AM 19.4 °F 6.0 °F 10.4 °F 68% 30.09 in 10.0 mi NW 13.8 mph - N/A   Overcast
2:24 AM 19.4 °F 6.6 °F 10.4 °F 68% 30.11 in 10.0 mi NNW 12.7 mph - N/A   Overcast
2:44 AM 19.4 °F 6.0 °F 10.4 °F 68% 30.11 in 10.0 mi NNW 13.8 mph 17.3 mph N/A   Overcast
3:04 AM 19.4 °F 7.2 °F 10.4 °F 68% 30.12 in 10.0 mi NW 11.5 mph - N/A   Overcast
3:24 AM 19.4 °F 6.0 °F 10.4 °F 68% 30.13 in 10.0 mi NW 13.8 mph - N/A   Overcast
3:44 AM 21.2 °F 7.3 °F 12.2 °F 68% 30.14 in 10.0 mi NW 16.1 mph - N/A   Overcast
4:04 AM 21.2 °F 7.8 °F 12.2 °F 68% 30.15 in 10.0 mi NW 15.0 mph 20.7 mph N/A   Overcast
4:24 AM 21.2 °F 8.9 °F 14.0 °F 74% 30.16 in 10.0 mi NNW 12.7 mph 19.6 mph N/A   Overcast
4:44 AM 21.2 °F 7.8 °F 15.8 °F 80% 30.17 in 10.0 mi NNW 15.0 mph 20.7 mph N/A   Overcast
5:04 AM 21.2 °F 6.4 °F 14.0 °F 74% 30.18 in 10.0 mi NNW 18.4 mph - N/A   Overcast
5:24 AM 21.2 °F 7.3 °F 12.2 °F 68% 30.19 in 10.0 mi NNW 16.1 mph - N/A   Overcast
5:44 AM 21.2 °F 5.6 °F 12.2 °F 68% 30.20 in 10.0 mi NNW 20.7 mph 27.6 mph N/A   Overcast
6:04 AM 21.2 °F 5.6 °F 12.2 °F 68% 30.21 in 10.0 mi NNW 20.7 mph 26.5 mph N/A   Overcast
6:24 AM 19.4 °F 2.8 °F 12.2 °F 74% 30.23 in 10.0 mi NNW 21.9 mph 27.6 mph N/A   Overcast
6:44 AM 19.4 °F 5.0 °F 12.2 °F 74% 30.24 in 10.0 mi NNW 16.1 mph - N/A   Scattered Clouds
7:04 AM 17.6 °F 1.7 °F 12.2 °F 79% 30.25 in 10.0 mi NNW 18.4 mph 21.9 mph N/A   Scattered Clouds
7:24 AM 19.4 °F 5.5 °F 12.2 °F 74% 30.26 in 10.0 mi NNW 15.0 mph 20.7 mph N/A   Overcast
7:44 AM 17.6 °F 2.7 °F 12.2 °F 79% 30.26 in 10.0 mi NNW 16.1 mph - N/A   Scattered Clouds
8:04 AM 17.6 °F 2.2 °F 12.2 °F 79% 30.27 in 10.0 mi NNW 17.3 mph - N/A   Clear
8:24 AM 17.6 °F 2.2 °F 10.4 °F 73% 30.28 in 10.0 mi NNW 17.3 mph - N/A   Scattered Clouds
8:44 AM 17.6 °F 2.2 °F 10.4 °F 73% 30.29 in 10.0 mi NNW 17.3 mph - N/A   Mostly Cloudy
9:04 AM 19.4 °F 2.8 °F 10.4 °F 68% 30.30 in 10.0 mi NNW 21.9 mph 26.5 mph N/A   Scattered Clouds
9:24 AM 19.4 °F 1.8 °F 8.6 °F 63% 30.31 in 10.0 mi NNW 25.3 mph 28.8 mph N/A   Clear
9:44 AM 19.4 °F 1.8 °F 8.6 °F 63% 30.33 in 10.0 mi NNW 25.3 mph - N/A   Clear
10:04 AM 19.4 °F 3.2 °F 8.6 °F 63% 30.34 in 10.0 mi NNW 20.7 mph 29.9 mph N/A   Clear
10:24 AM 19.4 °F 2.8 °F 8.6 °F 63% 30.34 in 10.0 mi NNW 21.9 mph 28.8 mph N/A   Clear
10:44 AM 19.4 °F 2.8 °F 8.6 °F 63% 30.35 in 10.0 mi North 21.9 mph 27.6 mph N/A   Clear
11:04 AM 21.2 °F 6.4 °F 8.6 °F 58% 30.35 in 10.0 mi North 18.4 mph 26.5 mph N/A   Clear
11:24 AM 21.2 °F 6.8 °F 10.4 °F 63% 30.35 in 10.0 mi NNW 17.3 mph 26.5 mph N/A   Clear
11:44 AM 21.2 °F 6.0 °F 8.6 °F 58% 30.36 in 10.0 mi NNW 19.6 mph 25.3 mph N/A   Clear
12:04 PM 21.2 °F 6.0 °F 8.6 °F 58% 30.35 in 10.0 mi NNW 19.6 mph 23.0 mph N/A   Clear
12:24 PM 23.0 °F 10.1 °F 8.6 °F 54% 30.35 in 10.0 mi NNW 15.0 mph 20.7 mph N/A   Clear
12:44 PM 23.0 °F 9.2 °F 8.6 °F 54% 30.36 in 10.0 mi NNW 17.3 mph 20.7 mph N/A   Clear
1:04 PM 23.0 °F 8.7 °F 8.6 °F 54% 30.36 in 10.0 mi North 18.4 mph - N/A   Clear
1:24 PM 24.8 °F 11.9 °F 8.6 °F 50% 30.36 in 10.0 mi NNW 16.1 mph 20.7 mph N/A   Clear
1:44 PM 24.8 °F 13.4 °F 8.6 °F 50% 30.36 in 10.0 mi NW 12.7 mph 21.9 mph N/A   Clear
2:04 PM 24.8 °F 14.0 °F 8.6 °F 50% 30.36 in 10.0 mi NNW 11.5 mph 18.4 mph N/A   Clear
2:24 PM 24.8 °F 12.9 °F 8.6 °F 50% 30.37 in 10.0 mi NNW 13.8 mph 18.4 mph N/A   Clear
2:44 PM 24.8 °F 12.9 °F 8.6 °F 50% 30.37 in 10.0 mi NNW 13.8 mph - N/A   Clear
3:04 PM 23.0 °F 11.1 °F 8.6 °F 54% 30.38 in 10.0 mi NNW 12.7 mph - N/A   Clear
3:24 PM 23.0 °F 11.7 °F 8.6 °F 54% 30.38 in 10.0 mi NW 11.5 mph - N/A   Clear
3:44 PM 21.2 °F 10.1 °F 8.6 °F 58% 30.40 in 10.0 mi NNW 10.4 mph - N/A   Clear
4:04 PM 21.2 °F 10.9 °F 8.6 °F 58% 30.41 in 10.0 mi NNW 9.2 mph - N/A   Clear
4:24 PM 19.4 °F 9.5 °F 8.6 °F 63% 30.41 in 10.0 mi NNW 8.1 mph - N/A   Clear
4:44 PM 19.4 °F 11.5 °F 6.8 °F 58% 30.42 in 10.0 mi NNW 5.8 mph - N/A   Clear
5:04 PM 17.6 °F 8.2 °F 6.8 °F 63% 30.42 in 10.0 mi NNW 6.9 mph - N/A   Clear
5:24 PM 15.8 °F 7.2 °F 5.0 °F 62% 30.43 in 10.0 mi NNW 5.8 mph - N/A   Clear
5:44 PM 14.0 °F 5.1 °F 3.2 °F 62% 30.43 in 10.0 mi North 5.8 mph - N/A   Clear
6:04 PM 14.0 °F 6.5 °F 5.0 °F 67% 30.43 in 10.0 mi North 4.6 mph - N/A   Clear
6:24 PM 14.0 °F 5.1 °F 5.0 °F 67% 30.43 in 10.0 mi North 5.8 mph - N/A   Clear
6:44 PM 12.2 °F 6.1 °F 5.0 °F 73% 30.43 in 10.0 mi North 3.5 mph - N/A   Clear
7:04 PM 12.2 °F 4.3 °F 5.0 °F 73% 30.43 in 10.0 mi North 4.6 mph - N/A   Clear
7:24 PM 10.4 °F 2.2 °F 5.0 °F 79% 30.43 in 10.0 mi North 4.6 mph - N/A   Clear
7:44 PM 12.2 °F 4.3 °F 5.0 °F 73% 30.43 in 10.0 mi North 4.6 mph - N/A   Clear
8:04 PM 8.6 °F - 1.4 °F 73% 30.43 in 10.0 mi Calm Calm - N/A   Clear
8:24 PM 10.4 °F - 3.2 °F 73% 30.43 in 10.0 mi Calm Calm - N/A   Clear
8:44 PM 10.4 °F - 3.2 °F 73% 30.44 in 10.0 mi Calm Calm - N/A   Clear
9:04 PM 10.4 °F - 5.0 °F 79% 30.44 in 10.0 mi Calm Calm - N/A   Clear
9:24 PM 10.4 °F - 5.0 °F 79% 30.44 in 10.0 mi Calm Calm - N/A   Clear
9:44 PM 8.6 °F - 3.2 °F 79% 30.44 in 10.0 mi Calm Calm - N/A   Clear
10:04 PM 8.6 °F - 3.2 °F 79% 30.45 in 10.0 mi Calm Calm - N/A   Clear
10:24 PM 8.6 °F - 3.2 °F 79% 30.44 in 10.0 mi Calm Calm - N/A   Clear
10:44 PM 6.8 °F -2.0 °F 1.4 °F 79% 30.44 in 10.0 mi ESE 4.6 mph - N/A   Clear
11:04 PM 5.0 °F -4.1 °F -0.4 °F 78% 30.44 in 10.0 mi ESE 4.6 mph - N/A   Clear
11:24 PM 6.8 °F -0.1 °F 1.4 °F 79% 30.45 in 10.0 mi SE 3.5 mph - N/A   Clear
11:44 PM 5.0 °F -4.1 °F -0.4 °F 78% 30.45 in 10.0 mi ESE 4.6 mph - N/A   Clear